| time (UTC) | temp C | wind direction | speed KPH | gust KPH | rain 1hr cm | rain 24hr cm | rain mn cm | humidity % | barometer mb |
| 20260506100020 | 22 | 248 | 11.3 | 27.4 | 0.00 | 0.00 | 0.00 | 51 | 1008.0 |
| 20260506094513 | 22 | 244 | 8.0 | 17.7 | 0.00 | 0.00 | 0.00 | 47 | 1008.0 |
| 20260506093020 | 22 | 242 | 8.0 | 17.7 | 0.00 | 0.00 | 0.00 | 48 | 1008.0 |
| 20260506091513 | 22 | 229 | 6.4 | 14.5 | 0.00 | 0.00 | 0.00 | 50 | 1008.0 |
| 20260506090021 | 21 | 165 | 3.2 | 14.5 | 0.00 | 0.00 | 0.00 | 51 | 1008.0 |
| 20260506084513 | 21 | 180 | 4.8 | 14.5 | 0.00 | 0.00 | 0.00 | 54 | 1008.0 |
| 20260506083020 | 21 | 189 | 6.4 | 12.9 | 0.00 | 0.00 | 0.00 | 55 | 1008.0 |
| 20260506081513 | 20 | 169 | 1.6 | 6.4 | 0.00 | 0.00 | 0.00 | 54 | 1008.0 |
| 20260506071513 | 18 | 200 | 1.6 | 4.8 | 0.00 | 0.00 | 0.00 | 69 | 1009.0 |
| 20260506061513 | 10 | 0 | 0.0 | 0.0 | 0.00 | 0.00 | 0.00 | 97 | 1010.0 |
| 20260506044513 | 7 | 0 | 0.0 | 0.0 | 0.00 | 0.00 | 0.00 | 99 | 1011.0 |
| 20260506043020 | 7 | 0 | 0.0 | 0.0 | 0.00 | 0.00 | 0.00 | 99 | 1011.0 |
| 20260506041513 | 7 | 0 | 0.0 | 0.0 | 0.00 | 0.00 | 0.00 | 99 | 1010.0 |
| 20260506040021 | 7 | 0 | 0.0 | 0.0 | 0.00 | 0.00 | 0.00 | 99 | 1010.0 |
| 20260506034513 | 7 | 0 | 0.0 | 0.0 | 0.00 | 0.00 | 0.00 | 98 | 1010.0 |
| 20260506031513 | 8 | 270 | 0.0 | 3.2 | 0.00 | 0.00 | 0.00 | 98 | 1010.0 |
| 20260506030021 | 8 | 0 | 0.0 | 0.0 | 0.00 | 0.00 | 0.00 | 97 | 1010.0 |
| 20260506024514 | 8 | 0 | 0.0 | 0.0 | 0.00 | 0.00 | 0.00 | 97 | 1010.0 |
| 20260506023021 | 8 | 0 | 0.0 | 0.0 | 0.00 | 0.00 | 0.00 | 97 | 1010.0 |
| 20260506021513 | 8 | 0 | 0.0 | 3.2 | 0.00 | 0.00 | 0.00 | 96 | 1010.0 |
| 20260506020020 | 8 | 0 | 0.0 | 0.0 | 0.00 | 0.00 | 0.00 | 96 | 1009.0 |
| 20260506014513 | 9 | 0 | 0.0 | 0.0 | 0.00 | 0.00 | 0.00 | 95 | 1009.0 |
| 20260506013021 | 9 | 0 | 0.0 | 0.0 | 0.00 | 0.00 | 0.00 | 94 | 1009.0 |
| 20260506011513 | 10 | 0 | 0.0 | 0.0 | 0.00 | 0.00 | 0.00 | 93 | 1009.0 |
| 20260506010019 | 10 | 0 | 0.0 | 0.0 | 0.00 | 0.00 | 0.00 | 91 | 1009.0 |
| 20260506004513 | 11 | 0 | 0.0 | 1.6 | 0.00 | 0.00 | 0.00 | 90 | 1009.0 |
| 20260506003019 | 12 | 0 | 0.0 | 0.0 | 0.00 | 0.00 | 0.00 | 87 | 1009.0 |
| 20260506001513 | 12 | 0 | 0.0 | 3.2 | 0.00 | 0.00 | 0.00 | 87 | 1009.0 |
| 20260506000019 | 12 | 135 | 0.0 | 3.2 | 0.00 | 0.00 | 0.00 | 85 | 1009.0 |
| 20260505234514 | 12 | 0 | 0.0 | 0.0 | 0.00 | 0.00 | 0.00 | 84 | 1009.0 |
| 20260505233020 | 12 | 135 | 0.0 | 3.2 | 0.00 | 0.00 | 0.00 | 84 | 1009.0 |
| 20260505231518 | 13 | 0 | 0.0 | 0.0 | 0.00 | 0.00 | 0.00 | 83 | 1009.0 |
| 20260505230018 | 13 | 180 | 0.0 | 6.4 | 0.00 | 0.00 | 0.00 | 82 | 1009.0 |
| 20260505224513 | 13 | 0 | 0.0 | 3.2 | 0.00 | 0.00 | 0.00 | 82 | 1009.0 |
| 20260505223021 | 13 | 215 | 3.2 | 11.3 | 0.00 | 0.00 | 0.00 | 79 | 1009.0 |
| 20260505221513 | 13 | 203 | 0.0 | 4.8 | 0.00 | 0.00 | 0.00 | 80 | 1009.0 |
| 20260505220025 | 13 | 29 | 1.6 | 12.9 | 0.00 | 0.00 | 0.00 | 79 | 1009.0 |
| 20260505214513 | 13 | 90 | 1.6 | 4.8 | 0.00 | 0.00 | 0.00 | 80 | 1009.0 |
| 20260505213020 | 13 | 115 | 1.6 | 6.4 | 0.00 | 0.00 | 0.00 | 79 | 1009.0 |
| 20260505211513 | 14 | 135 | 0.0 | 4.8 | 0.00 | 0.00 | 0.00 | 79 | 1009.0 |
| 20260505210021 | 15 | 104 | 1.6 | 4.8 | 0.00 | 0.00 | 0.00 | 77 | 1009.0 |
| 20260505204513 | 15 | 150 | 4.8 | 14.5 | 0.00 | 0.00 | 0.00 | 76 | 1009.0 |
| 20260505203021 | 15 | 146 | 6.4 | 19.3 | 0.00 | 0.00 | 0.00 | 75 | 1009.0 |
| 20260505201513 | 15 | 210 | 4.8 | 24.1 | 0.00 | 0.00 | 0.00 | 74 | 1009.0 |
| 20260505200020 | 15 | 129 | 6.4 | 19.3 | 0.00 | 0.00 | 0.00 | 74 | 1009.0 |
| 20260505194513 | 15 | 176 | 3.2 | 14.5 | 0.00 | 0.00 | 0.00 | 74 | 1009.0 |
| 20260505193021 | 15 | 140 | 3.2 | 16.1 | 0.00 | 0.00 | 0.00 | 73 | 1009.0 |
| 20260505191513 | 15 | 185 | 4.8 | 12.9 | 0.00 | 0.00 | 0.00 | 71 | 1009.0 |
| 20260505184513 | 16 | 331 | 3.2 | 8.0 | 0.00 | 0.00 | 0.00 | 69 | 1009.0 |
| 20260505183020 | 16 | 204 | 4.8 | 22.5 | 0.00 | 0.00 | 0.00 | 67 | 1008.0 |
| 20260505181513 | 16 | 163 | 4.8 | 17.7 | 0.00 | 0.00 | 0.00 | 65 | 1009.0 |
| 20260505180021 | 17 | 184 | 6.4 | 16.1 | 0.00 | 0.00 | 0.00 | 63 | 1009.0 |
| 20260505174513 | 17 | 188 | 6.4 | 25.7 | 0.00 | 0.00 | 0.00 | 62 | 1009.0 |
| 20260505173019 | 18 | 194 | 8.0 | 17.7 | 0.00 | 0.00 | 0.00 | 60 | 1008.0 |
| 20260505171513 | 18 | 166 | 14.5 | 45.1 | 0.00 | 0.00 | 0.00 | 59 | 1008.0 |
| 20260505170020 | 18 | 181 | 16.1 | 30.6 | 0.00 | 0.00 | 0.00 | 59 | 1008.0 |
| 20260505164513 | 18 | 186 | 14.5 | 27.4 | 0.00 | 0.00 | 0.00 | 59 | 1009.0 |
| 20260505161513 | 18 | 187 | 12.9 | 32.2 | 0.00 | 0.00 | 0.00 | 59 | 1009.0 |
| 20260505153020 | 18 | 180 | 16.1 | 30.6 | 0.00 | 0.00 | 0.00 | 56 | 1009.0 |
| 20260505151512 | 19 | 226 | 14.5 | 29.0 | 0.00 | 0.00 | 0.00 | 56 | 1009.0 |
| 20260505124513 | 22 | 175 | 12.9 | 37.0 | 0.00 | 0.00 | 0.00 | 47 | 1009.0 |
| 20260505123020 | 22 | 216 | 14.5 | 33.8 | 0.00 | 0.00 | 0.00 | 46 | 1009.0 |
| 20260505121513 | 23 | 170 | 16.1 | 40.2 | 0.00 | 0.00 | 0.00 | 44 | 1009.0 |
| 20260505120021 | 23 | 190 | 11.3 | 25.7 | 0.00 | 0.00 | 0.00 | 42 | 1008.0 |
| 20260505114513 | 25 | 191 | 11.3 | 33.8 | 0.00 | 0.00 | 0.00 | 39 | 1008.0 |
| 20260505113018 | 24 | 197 | 11.3 | 24.1 | 0.00 | 0.00 | 0.00 | 39 | 1008.0 |
| 20260505111513 | 23 | 173 | 6.4 | 20.9 | 0.00 | 0.00 | 0.00 | 40 | 1008.0 |
| 20260505101513 | 23 | 161 | 11.3 | 27.4 | 0.00 | 0.00 | 0.00 | 39 | 1009.0 |